Location: Unspecified
(0.0000°N, 0.0000°E)
Time: 03:19:52
(UTC+02:00)

ARIANE DEB (SPELDA) - Visible Passes

Search period start: 27 May 2018 00:00
Search period end: 06 June 2018 00:00
Orbit: 311 x 32866 km, 3.8° (Epoch: 26 May)

Date Brightness Start Highest point End Pass type
(mag) Time Alt. Az. Time Alt. Az. Time Alt. Az.
27 May 6.2 07:28:54 10° W 07:42:09 89° N 16:26:48 10° E visible
28 May 4.7 12:50:43 10° W 21:31:16 81° S 21:35:09 36° ESE visible
30 May 4.5 12:59:49 10° W 21:38:41 79° S 21:41:53 41° ESE visible
01 Jun 4.3 13:09:08 10° W 21:46:00 78° S 21:48:32 47° ESE visible
03 Jun 4.1 13:18:43 10° W 21:53:13 76° S 21:55:08 53° ESE visible
05 Jun 4.0 13:28:37 10° W 15:03:07 32° W 22:01:40 60° SE visible
